{"data":{"norad_id":41189,"intl_designator":"2015-081L","name":"ORBCOMM FM116","alt_names":[],"object_type":"PAYLOAD","status":"ACTIVE","operator":null,"country":"ORB","launch_date":"2015-12-22","launch_site_code":"AFETR","launch_vehicle":null,"mission":null,"orbit_class":"UNKNOWN","rcs_meters":0.55,"size_class":null,"mass_kg":null,"dimensions":null,"purposes":["comms"],"wikipedia_slug":null,"has_3d_model":false,"image_url":null,"decayed_at":null,"tle_current":{"epoch":"2026-05-25T02:01:57.068256Z","epoch_age_seconds":61651,"freshness":"FRESH","line1":"1 41189U 15081L   26145.08468829  .00000576  00000+0  15803-3 0  9998","line2":"2 41189  47.0037  19.8522 0001955 314.3061  45.7665 14.58841637555567","mean_motion":14.58841637,"eccentricity":0.0001955,"inclination_deg":47.0037,"raan_deg":19.8522,"arg_perigee_deg":314.3061,"mean_anomaly_deg":45.7665,"bstar":0.00015803,"rev_number":55556,"period_min":98.708452204672,"perigee_km":695.53353915989,"apogee_km":698.29988516134,"semimajor_km":7075.0537121606,"source":"CELESTRAK","updated_at":"2026-05-25T13:38:22.867616Z"}}}